Date String (YYYY-MM-DD hh:mm:ss) UTC,Instrument flags,Ambient pressure (hPa),Sample flow (lpm),Bypass flow (lpm),Sample temperature (°C),Ambient temperature (°C),ASC tube jacket temperature (°C),LED temperature (°C),Box temperature (°C),Sample RH (%),Span deviation,Mass concentration (μg/m³),Mass concentration (μg/m³),Mass concentration (μg/m³)
DateTimeUTC,F1_M11,P_M11,Q1_M11,Q2_M11,T1_M11,T2_M11,T3_M11,T4_M11,T5_M11,U1_M11,ZSPAN_M11,X0_M11,X2_M11,X1_M11
2022-06-26 12:00:00,,0838.2,4.99,0.00,30.4,29.3,00.0,39.2,32.2,21.0,0000.0,0007.64,0003.51,0002.83
2022-06-26 12:01:00,,0838.2,5.00,0.00,30.4,29.4,00.0,39.2,32.2,20.8,0000.0,0007.59,0003.53,0002.85
2022-06-26 12:02:00,,0838.2,5.00,0.00,30.4,29.4,00.0,39.2,32.2,20.7,0000.0,0007.61,0003.52,0002.86
2022-06-26 12:03:00,,0838.2,5.02,0.00,30.4,29.4,00.0,39.2,32.2,20.7,0000.0,0007.48,0003.54,0002.86
2022-06-26 12:04:00,,0838.2,4.98,0.00,30.4,29.4,00.0,39.2,32.2,20.9,0000.0,0007.47,0003.56,0002.88
2022-06-26 12:05:00,,0838.3,5.00,0.00,30.4,29.4,00.0,39.3,32.2,20.9,0000.0,0007.43,0003.54,0002.88
2022-06-26 12:06:00,,0838.3,5.00,0.00,30.4,29.4,00.0,39.3,32.2,20.7,0000.0,0007.43,0003.55,0002.88
2022-06-26 12:07:00,,0838.4,5.00,0.00,30.4,29.4,00.0,39.3,32.3,20.6,0000.0,0007.58,0003.53,0002.88
2022-06-26 12:08:00,,0838.3,5.00,0.00,30.4,29.4,00.0,39.3,32.3,20.8,0000.0,0007.72,0003.53,0002.87
2022-06-26 12:09:00,,0838.3,5.01,0.00,30.4,29.4,00.0,39.3,32.3,20.9,0000.0,0007.68,0003.54,0002.87
2022-06-26 12:10:00,,0838.4,5.01,0.00,30.5,29.4,00.0,39.3,32.3,21.3,0000.0,0007.68,0003.55,0002.87
2022-06-26 12:11:00,,0838.5,4.99,0.00,30.5,29.4,00.0,39.3,32.3,21.1,0000.0,0007.56,0003.55,0002.87
2022-06-26 12:12:00,,0838.5,5.00,0.00,30.5,29.4,00.0,39.3,32.3,21.1,0000.0,0007.53,0003.55,0002.87
2022-06-26 12:13:00,,0838.5,5.01,0.00,30.5,29.4,00.0,39.3,32.3,21.1,0000.0,0007.10,0003.56,0002.86
2022-06-26 12:14:00,,0838.5,4.98,0.00,30.5,29.4,00.0,39.3,32.3,21.0,0000.0,0007.35,0003.55,0002.85
2022-06-26 12:15:00,,0838.5,5.00,0.00,30.5,29.4,00.0,39.3,32.3,21.1,0000.0,0007.84,0003.51,0002.84
2022-06-26 12:16:00,,0838.5,5.01,0.00,30.5,29.4,00.0,39.3,32.3,21.3,0000.0,0007.89,0003.51,0002.84
2022-06-26 12:17:00,,0838.5,5.00,0.00,30.5,29.4,00.0,39.3,32.3,21.4,0000.0,0008.03,0003.52,0002.82
2022-06-26 12:18:00,,0838.5,5.00,0.00,30.5,29.5,00.0,39.3,32.3,21.6,0000.0,0008.23,0003.55,0002.82
2022-06-26 12:19:00,,0838.5,4.99,0.00,30.5,29.5,00.0,39.3,32.3,21.7,0000.0,0007.87,0003.57,0002.83
2022-06-26 12:20:00,,0838.5,5.00,0.00,30.5,29.5,00.0,39.3,32.3,21.8,0000.0,0007.88,0003.55,0002.85
2022-06-26 12:21:00,,0838.5,5.01,0.00,30.5,29.5,00.0,39.4,32.3,21.9,0000.0,0007.95,0003.55,0002.86
2022-06-26 12:22:00,,0838.5,5.01,0.00,30.5,29.5,00.0,39.4,32.3,21.9,0000.0,0007.91,0003.54,0002.87
2022-06-26 12:23:00,,0838.5,5.00,0.00,30.5,29.5,00.0,39.4,32.3,21.8,0000.0,0007.94,0003.55,0002.87
2022-06-26 12:24:00,,0838.5,5.00,0.00,30.5,29.5,00.0,39.4,32.3,21.6,0000.0,0008.10,0003.56,0002.88
2022-06-26 12:25:00,,0838.5,4.99,0.00,30.5,29.5,00.0,39.4,32.3,21.5,0000.0,0008.05,0003.58,0002.88
2022-06-26 12:26:00,,0838.5,5.01,0.00,30.5,29.5,00.0,39.4,32.4,21.7,0000.0,0007.45,0003.59,0002.90
2022-06-26 12:27:00,,0838.5,5.00,0.00,30.5,29.5,00.0,39.4,32.4,21.7,0000.0,0007.54,0003.59,0002.90
2022-06-26 12:28:00,,0838.4,5.00,0.00,30.6,29.5,00.0,39.4,32.4,21.8,0000.0,0007.51,0003.58,0002.91
2022-06-26 12:29:00,,0838.4,4.98,0.00,30.6,29.5,00.0,39.4,32.4,21.9,0000.0,0007.39,0003.55,0002.91
2022-06-26 12:30:00,,0838.4,5.02,0.00,30.6,29.5,00.0,39.4,32.4,21.6,0000.0,0007.30,0003.56,0002.92
2022-06-26 12:31:00,,0838.5,5.00,0.00,30.6,29.5,00.0,39.4,32.4,21.6,0000.0,0007.23,0003.58,0002.94
2022-06-26 12:32:00,,0838.5,4.99,0.00,30.6,29.5,00.0,39.4,32.4,21.7,0000.0,0007.91,0003.60,0002.94
2022-06-26 12:33:00,,0838.5,5.02,0.00,30.6,29.5,00.0,39.4,32.4,21.9,0000.0,0008.25,0003.60,0002.95
2022-06-26 12:34:00,,0838.5,4.98,0.00,30.6,29.5,00.0,39.4,32.4,22.0,0000.0,0008.57,0003.62,0002.97
2022-06-26 12:35:00,,0838.5,5.00,0.00,30.6,29.5,00.0,39.4,32.4,21.9,0000.0,0008.47,0003.61,0002.99
2022-06-26 12:36:00,,0838.5,5.00,0.00,30.6,29.5,00.0,39.4,32.4,22.0,0000.0,0008.53,0003.63,0003.00
2022-06-26 12:37:00,,0838.5,5.00,0.00,30.6,29.5,00.0,39.4,32.4,22.0,0000.0,0008.56,0003.66,0003.02
2022-06-26 12:38:00,,0838.5,5.00,0.00,30.6,29.5,00.0,39.4,32.4,21.8,0000.0,0008.66,0003.65,0003.05
2022-06-26 12:39:00,,0838.5,5.00,0.00,30.6,29.5,00.0,39.4,32.4,21.7,0000.0,0009.26,0003.66,0003.07
2022-06-26 12:40:00,,0838.4,4.99,0.00,30.6,29.5,00.0,39.4,32.4,21.4,0000.0,0009.30,0003.70,0003.09
2022-06-26 12:41:00,,0838.4,5.00,0.00,30.6,29.5,00.0,39.4,32.4,21.6,0000.0,0009.48,0003.73,0003.09
2022-06-26 12:42:00,,0838.4,4.99,0.00,30.6,29.6,00.0,39.4,32.4,21.2,0000.0,0009.55,0003.72,0003.11
2022-06-26 12:43:00,,0838.5,5.00,0.00,30.6,29.6,00.0,39.5,32.4,20.9,0000.0,0009.12,0003.72,0003.12
2022-06-26 12:44:00,,0838.5,5.00,0.00,30.6,29.6,00.0,39.5,32.4,20.8,0000.0,0009.00,0003.76,0003.14
2022-06-26 12:45:00,,0838.5,5.01,0.00,30.6,29.6,00.0,39.5,32.4,20.4,0000.0,0009.30,0003.75,0003.15
2022-06-26 12:46:00,,0838.5,5.00,0.00,30.6,29.6,00.0,39.5,32.4,19.9,0000.0,0009.44,0003.78,0003.17
2022-06-26 12:47:00,,0838.5,5.01,0.00,30.6,29.6,00.0,39.5,32.4,20.0,0000.0,0009.77,0003.75,0003.19
2022-06-26 12:48:00,,0838.5,5.01,0.00,30.6,29.6,00.0,39.5,32.4,20.0,0000.0,0010.37,0003.77,0003.21
2022-06-26 12:49:00,,0838.6,4.99,0.00,30.6,29.6,00.0,39.5,32.4,19.9,0000.0,0010.36,0003.83,0003.22
2022-06-26 12:50:00,,0838.6,4.99,0.00,30.6,29.6,00.0,39.5,32.4,19.9,0000.0,0009.93,0003.92,0003.25
2022-06-26 12:51:00,,0838.6,5.01,0.00,30.6,29.6,00.0,39.5,32.4,20.0,0000.0,0009.96,0003.93,0003.27
2022-06-26 12:52:00,,0838.6,5.00,0.00,30.6,29.6,00.0,39.5,32.4,20.0,0000.0,0010.44,0003.95,0003.29
2022-06-26 12:53:00,,0838.6,4.99,0.00,30.6,29.6,00.0,39.5,32.4,20.2,0000.0,0010.79,0003.99,0003.31
2022-06-26 12:54:00,,0838.6,5.01,0.00,30.6,29.6,00.0,39.5,32.4,20.1,0000.0,0010.93,0004.02,0003.33
2022-06-26 12:55:00,,0838.6,4.99,0.00,30.6,29.6,00.0,39.5,32.4,20.0,0000.0,0011.09,0004.02,0003.36
2022-06-26 12:56:00,,0838.6,4.99,0.00,30.6,29.6,00.0,39.5,32.4,20.1,0000.0,0010.35,0004.05,0003.37
2022-06-26 12:57:00,,0838.6,5.00,0.00,30.6,29.6,00.0,39.5,32.4,19.9,0000.0,0010.13,0004.05,0003.37
2022-06-26 12:58:00,,0838.6,5.00,0.00,30.6,29.6,00.0,39.5,32.4,19.9,0000.0,0009.73,0004.08,0003.38
2022-06-26 12:59:00,,0838.7,5.00,0.00,30.7,29.6,00.0,39.5,32.4,19.7,0000.0,0009.15,0004.07,0003.39
